Location: Bittkow
(50.3000°N, 19.0000°E)
Time: 22:46:50
(UTC+00:00)

Cosmos 2227 Rocket - Pass Details

Date: 19 September 2020
Orbit: 840 x 844 km, 71.0° (Epoch: 20 October)

Event Time Altitude Azimuth Distance (km) Brightness Sun altitude
Rises 01:19:41 0° 328° (NNW) 3,406 5.5 -27.9°
Reaches altitude 10° 01:22:10 10° 324° (NW) 2,468 4.7 -27.6°
Enters shadow 01:24:55 29° 313° (NW) 1,509 3.4 -27.3°
